Terug naar catalogus

CZ-4 DEB

ActiefSSO
NORAD 20974·DEBRIS·🇨🇳 China

Gelanceerd Sep 3, 1990 vanaf Taiyuan Satellite Launch Center

Loading…

Volgende Passages (komende 24 uur)

TLE

VersSource: Space-Track

Epoch: Sep 14, 2026, 10:55 UTC

1 20974U 90081CG  26257.45543785  .00000950  00000-0  34927-3 0  9995
2 20974  98.5677 255.6625 0015496  75.0345  80.3682 14.34889014862551

Volg CZ-4 DEB in realtime met AllMySat

Download on the App Store